Location: Park Creek Village Mobile Home Park
(38.2885°N, 122.4714°W)
Time: 21:22:18
(UTC+00:00)

Cosmos 1844 Rocket - Pass Details

Date: 14 December 2019
Orbit: 825 x 844 km, 71.0° (Epoch: 22 January)

Event Time Altitude Azimuth Distance (km) Brightness Sun altitude
Rises 14:30:33 0° 226° (SW) 3,357 5.6 -9.3°
Reaches altitude 10° 14:33:12 10° 235° (SW) 2,425 4.8 -8.9°
Maximum altitude 14:38:13 34° 300° (WNW) 1,334 3.2 -8.0°
Drops below altitude 10° 14:43:15 10° 5° (N) 2,432 4.9 -7.1°
Sets 14:45:55 0° 14° (NNE) 3,369 5.7 -6.6°
